SCP
0 0 0 0 0 0 0 0 0 0 0 0 0 0 0 0 0 0 0 0 0 0 0 0 0 0 0 0 0 0 0 0 0 0 0 0 0 0 0 0 0 0 0 0
0 0 0 0 0 0 0 0 0 0 0 0 0 0 0 0 0 0 0 0 0 0 0 0 0 0 0 0 0 0 0 0 0 0 0 0 0 0 0 0 0 0 0 0
0 0 0 0 0 0 0 0 0 0 0 0 0 0 0 0 0 0 0 0 0 0 0 0 0 0 0 0 0 0 0 0 0 0 0 0 0 0 0 0 0 0 0 0
0 0 0 0 0 0 0 0 0 0 0 0 0 0 0 0 0 0 0 0 0 0 0 0 0 0 0 0 0 0 0 0 0 0 0 0 0 0 0 0 0 0 0 0
0 0 0 0 0 0 0 0 0 0 0 0 0 0 0 0 0 0 0 0 0 0 0 0 0 0 0 0 0 0 0 0 0 0 0 0 0 0 0 0 0 0 0 0
0 0 0 0 0 0 0 0 0 0 0 0 0 0 0 0 0 0 0 0 -0 -0 -0 -0 0 0 0 0 -0 -0 0 0 0 0 -0 -0 -0 0 0 0 0 0 0 0
0 0 0 0 0 0 0 0 0 0 0 0 0 0 0 0 0 0 0 0 -0 -0 -0 -0 0 0 0 0 0 -0 0 0 -0 0 0 0 0 0 0 0 0 0 0 0
0 0 0 0 0 0 0 0 0 0 0 0 0 0 0 0 0 0 0 0 -0 -0 -0 -0 0 0 0 0 -0 -0 -0 0 -0 0 -0 0 0 0 0 0 0 -0 0 0
0 0 0 0 0 0 0 0 0 0 0 0 0 0 0 0 0 0 -0 -0 0 0 0 -0 -0 0 0 0 0 0 0 0 0 0 0 0 0 -0 0 0 0 -0 -0 -0
0 0 0 0 0 0 0 0 0 0 0 0 0 0 0 0 0 0 0 0 -0 0 0 0 0 0 0 0 0 0 0 0 0 0 0 0 0 -0 0 0 -0 0 0 -0
0 0 0 0 0 0 0 0 0 0 0 0 0 0 0 0 0 0 0 0 -0 0 0 0 -0 0 0 0 0 0 0 0 0 0 0 0 0 0 0 0 0 -0 0 -0
-0 0 0 0 0 0 0 0 0 0 0 0 0 0 0 0 0 0 -0 0 0 -0 -0 0 0 -0 0 0 0 0 0 -0 -0 -0 -0 -0 -0 -0 -0 0 -0 0 0 0
0 0 0 0 0 0 0 0 0 0 0 0 0 0 0 0 0 0 0 0 0 0 -0 -0 -0 -0 -0 -0 -0 -0 -0 -0 -0 0 -0 -0 0 -0 0 0 0 0 0 0
0 0 0 0 0 0 0 0 0 0 0 0 0 0 0 0 0 0 0 0 0 0 0 0 0 0 -0 -0 0 0 -0 -0 -0 -0 -0 -0 -0 0 0 0 0 0 0 0
0 0 0 0 0 0 0 0 0 0 0 0 0 0 0 0 0 0 0 0 0 0 0 0 -0 -0 -0 -0 -0 -0 -0 0 0 0 0 0 0 0 0 0 0 0 0 0
0 0 0 0 0 0 0 0 0 0 0 0 0 0 0 0 0 0 0 0 0 0 0 0 0 0 -0 0 0 0 -0 0 0 0 0 0 0 0 0 0 0 0 0 0
0 0 0 0 0 0 0 0 0 0 0 0 0 0 0 0 0 0 0 0 0 0 0 0 0 0 0 -0 -0 -0 -0 -0 -0 -0 -0 0 0 0 0 0 0 0 0 0
-0 0 0 0 0 0 0 0 0 0 0 0 0 0 0 0 0 0 0 0 0 0 0 0 -0 -0 0 -0 -0 -0 -0 -0 -0 -0 0 0 0 0 0 0 0 0 0 0
-0 0 0 0 0 0 0 0 0 0 0 0 0 0 0 0 0 0 0 0 0 0 0 0 0 -0 -0 0 -0 -0 -0 -0 -0 -0 0 0 0 0 0 0 0 0 0 0
-0 0 0 0 0 0 0 0 0 0 0 0 0 0 0 0 0 0 0 0 0 0 0 0 -0 -0 0 -0 -0 -0 -0 -0 -0 0 0 0 0 0 0 0 0 0 0 0
0 0 0 0 0 0 0 1 0 0 0 0 0 0 0 0 0 0 0 0 0 0 0 0 -0 -0 -0 -0 -0 -0 -0 -0 0 0 0 0 0 0 0 0 0 0 -0 -0
0 0 0 0 0 0 0 0 0 0 0 0 0 0 0 0 0 0 0 0 0 0 0 0 -0 -0 -0 -0 -0 -0 -0 0 0 0 0 0 0 0 0 0 -0 -0 -0 -0
-0 0 0 0 0 0 0 0 0 0 0 0 0 0 0 0 0 0 0 0 0 0 0 0 -0 -0 -0 -0 -0 -0 -0 -0 0 0 0 0 0 0 0 -0 -0 -0 -0 -0
0 0 0 0 0 0 0 0 0 0 0 0 0 0 0 0 0 0 0 0 0 0 0 0 0 -0 -0 -0 -0 -0 -0 -0 0 0 0 0 0 0 -0 -0 -0 -0 -0 -0
0 0 0 0 0 0 0 0 0 0 0 0 0 0 0 0 0 0 0 0 0 0 0 -0 -0 -0 -0 -0 -0 -0 -0 -0 0 0 0 0 -0 0 -0 -0 -0 -0 0 0
0 0 0 0 0 0 0 0 0 0 0 0 0 0 0 0 0 0 0 0 0 0 0 -0 -0 -0 -0 -0 -0 -0 -0 -0 0 0 0 -0 0 -0 -0 -0 -0 0 0 0
0 0 0 0 0 0 0 0 0 0 0 0 0 0 0 0 0 0 0 0 0 0 -0 -0 -0 -0 -0 -0 -0 -0 -0 -0 0 0 -0 -0 -0 -0 -0 0 0 0 0 0
Wind_Speed_500mb
25 22 16 17 11 14 12 9 10 3 20 15 24 16 11 1 8 3 5 8 8 7 2 5 6 5 15 8 8 7 5 9 17 15 17 10 18 13 13 5 5 4 9 6
24 25 19 13 16 16 10 10 12 3 24 11 14 9 12 4 10 3 4 3 6 2 2 6 4 3 7 3 7 16 6 8 14 18 18 15 15 18 10 18 6 7 5 6
25 26 17 15 14 11 8 10 8 12 22 24 15 19 21 16 2 6 2 4 2 5 3 2 3 6 5 4 9 6 8 9 13 15 11 14 8 4 16 23 8 9 4 16
23 26 17 19 11 11 6 12 9 6 11 22 19 15 14 21 13 5 5 5 5 5 3 4 1 3 9 6 3 5 8 4 2 11 6 7 13 2 8 10 14 6 16 16
22 25 18 15 13 14 8 10 9 6 9 12 25 14 16 22 14 5 9 3 3 1 6 7 3 3 6 7 3 9 8 2 5 12 21 25 24 17 18 15 15 23 27 11
21 23 23 15 15 9 5 6 12 10 10 17 18 20 14 15 21 12 8 20 21 23 22 26 24 21 14 10 11 8 3 4 1 7 17 26 17 12 8 14 20 16 15 5
20 23 21 18 14 17 7 8 9 15 9 15 17 12 14 22 10 20 19 18 21 23 34 39 35 33 29 22 16 12 12 7 7 7 8 3 3 0 6 17 18 21 17 14
21 22 23 21 18 19 16 9 5 11 9 20 9 17 25 28 33 28 17 7 29 36 25 17 13 11 14 20 18 12 11 4 5 3 15 12 4 8 3 4 8 19 10 13
22 22 23 21 33 18 20 10 10 8 19 7 15 24 34 25 25 21 39 43 28 9 12 5 4 4 4 6 9 7 6 5 5 3 6 4 10 12 1 9 7 16 12 17
23 22 22 20 26 19 16 11 15 5 15 4 5 14 23 19 24 12 31 21 13 8 9 8 5 7 1 5 5 3 8 6 8 5 7 5 8 7 5 7 8 7 11 14
23 22 22 22 20 20 17 5 17 9 11 4 0 2 15 21 20 18 34 17 10 14 8 5 5 6 6 7 1 6 1 3 3 5 6 4 17 10 2 10 9 7 12 15
25 22 24 22 21 21 19 6 12 14 11 5 4 9 15 15 11 13 46 4 32 12 4 3 5 8 8 15 7 9 6 2 3 5 5 13 14 5 5 8 8 10 12 17
23 23 24 22 24 23 23 15 9 8 10 10 12 12 8 18 24 24 22 7 10 9 2 7 3 6 5 8 7 11 9 9 6 9 14 17 13 10 9 9 11 12 16 17
24 22 25 23 26 26 26 26 6 14 11 7 7 6 4 14 22 24 5 17 17 19 12 4 2 6 7 5 6 6 1 18 11 15 22 19 16 9 6 10 12 13 16 17
24 23 27 25 31 24 26 32 24 21 9 5 18 14 8 13 15 14 11 23 20 20 10 5 5 9 8 8 9 7 17 13 10 8 24 14 17 14 12 17 16 16 17 16
22 25 28 27 37 17 16 5 24 26 14 7 10 8 9 18 22 23 23 21 14 8 6 9 7 8 5 8 6 17 20 17 17 24 19 27 24 19 15 17 18 18 19 20
23 29 27 22 43 23 20 10 20 33 14 7 15 17 15 25 23 19 17 16 10 8 8 3 9 11 9 4 5 35 28 24 20 27 31 25 21 18 14 15 17 18 19 20
24 27 31 36 30 27 44 8 19 40 12 9 6 9 20 25 25 15 13 14 13 5 7 8 12 12 6 2 23 40 33 30 29 26 10 24 21 17 15 14 15 19 23 24
24 26 20 28 19 18 18 18 13 37 10 7 13 15 11 24 21 19 14 10 5 7 7 7 13 6 5 12 48 44 39 30 31 26 26 22 18 17 16 18 20 24 26 26
19 12 11 11 17 26 12 16 18 16 14 13 14 24 11 39 33 15 15 8 8 8 6 15 7 6 7 35 44 44 35 34 32 29 23 21 20 22 23 24 25 26 24 22
11 12 12 9 37 29 9 11 15 17 10 17 16 28 23 38 18 16 4 7 9 7 9 8 9 8 24 48 46 43 34 33 23 13 23 19 27 28 30 31 27 24 22 22
22 16 5 31 17 14 11 10 13 14 13 25 33 41 41 19 17 9 8 5 5 6 19 7 6 10 52 55 52 44 39 29 25 27 33 35 34 34 34 28 24 22 21 20
45 12 14 16 17 15 15 17 15 13 23 33 53 36 27 13 8 9 7 8 5 20 9 7 7 43 60 60 56 47 38 35 37 40 40 40 40 34 30 28 22 22 23 22
11 10 11 12 12 15 15 22 23 27 34 57 57 35 15 13 9 8 9 6 11 9 10 12 16 64 68 63 57 52 47 44 46 46 45 44 39 35 29 25 24 23 23 23
12 14 11 19 31 29 15 36 33 35 59 64 48 20 15 10 7 5 8 11 10 12 9 12 55 74 73 68 62 57 54 53 51 50 46 42 40 33 31 26 24 23 23 23
13 18 14 30 23 15 15 30 44 58 64 60 29 11 12 9 8 11 13 11 11 7 12 49 77 78 73 70 64 60 58 57 55 48 46 43 37 34 32 29 26 23 22 24
15 20 25 18 17 26 30 42 55 76 65 21 11 14 13 15 8 11 11 8 6 27 45 69 79 81 78 72 67 65 64 59 53 51 46 41 38 37 33 29 25 22 23 24
Wind_Direction_500mb
335 325 289 269 268 260 306 270 234 270 175 208 206 223 230 337 161 203 244 287 323 298 23 275 291 311 30 359 313 274 75 293 260 238 72 343 301 263 150 197 190 247 280 133
330 332 295 295 246 261 285 243 251 288 177 220 202 165 183 206 190 183 234 159 341 313 330 278 318 65 35 344 290 355 30 250 272 231 189 196 240 204 234 128 170 212 240 130
325 330 301 305 228 243 261 263 206 181 205 263 278 188 199 164 143 130 90 107 228 208 189 323 142 130 71 20 32 334 296 280 298 313 349 310 220 237 233 213 212 197 188 139
320 326 314 272 247 249 262 230 257 3 191 217 230 201 193 187 172 164 200 149 296 265 189 169 167 98 161 133 111 233 290 332 321 293 319 5 51 357 238 183 246 170 157 115
310 320 324 281 250 242 244 287 300 206 299 246 208 190 208 195 126 296 145 216 142 150 86 333 117 161 339 16 125 2 14 183 122 70 99 101 89 63 99 108 121 125 98 67
304 316 322 283 265 220 223 255 288 281 146 198 207 187 177 165 149 47 133 122 108 92 83 84 81 79 82 78 11 18 28 140 186 136 157 142 78 356 52 83 58 103 93 182
296 311 310 276 270 219 174 304 292 267 218 202 201 157 159 150 156 141 122 128 116 119 113 104 97 92 87 79 64 28 77 103 126 138 224 68 117 33 90 76 57 59 66 32
287 299 311 305 266 244 225 270 304 289 275 200 144 164 122 121 118 111 125 156 136 139 145 134 131 123 119 82 45 57 23 84 63 90 70 121 140 178 55 55 87 80 44 22
278 293 303 304 239 267 238 252 261 276 299 158 158 154 153 138 125 105 101 119 132 156 209 208 176 84 35 90 125 24 101 3 129 339 101 107 145 109 58 303 153 57 3 9
274 290 295 298 257 264 225 202 259 252 270 120 212 171 173 158 163 127 153 152 170 211 204 181 132 111 18 150 126 83 78 101 90 104 90 146 184 127 265 277 70 67 347 340
271 285 288 291 261 242 221 208 248 217 276 124 144 74 149 158 161 162 158 167 200 192 212 182 150 141 119 110 139 142 271 288 121 261 114 170 167 181 330 52 103 356 5 347
267 275 279 284 254 238 202 229 261 217 261 12 176 191 165 161 153 146 170 353 157 167 195 206 129 153 167 156 131 165 185 302 142 354 57 109 132 126 107 46 2 18 3 17
263 268 273 273 251 232 201 210 245 218 240 172 163 145 162 178 166 149 182 171 142 163 66 120 82 122 153 172 143 131 160 158 170 163 138 145 144 132 74 4 351 22 28 22
253 266 272 268 242 228 206 215 244 236 272 216 126 169 176 169 158 170 121 132 130 139 150 128 164 119 273 115 133 130 234 172 166 126 141 128 116 61 24 99 73 48 40 33
253 268 276 268 227 228 211 221 225 208 267 343 130 124 55 145 150 155 137 135 136 152 159 159 90 105 132 125 139 140 180 188 178 130 119 93 99 96 84 76 54 42 38 40
256 272 279 282 210 204 183 270 238 197 221 267 155 110 103 122 129 133 129 131 136 146 119 102 103 133 208 186 153 154 168 132 111 136 119 116 112 110 91 73 60 57 52 43
260 272 278 261 206 198 185 203 164 192 207 231 136 144 142 138 133 134 127 130 124 129 123 96 134 160 205 192 132 157 157 148 134 132 128 128 140 108 88 76 67 64 59 51
267 280 287 205 213 209 206 178 179 185 197 253 170 105 152 174 161 144 163 147 153 72 107 157 161 149 242 192 145 152 149 146 143 143 124 126 117 105 87 78 72 69 67 66
273 287 226 208 204 188 214 209 219 186 243 253 195 171 150 175 159 135 154 181 139 153 164 154 184 143 206 144 154 153 153 152 149 140 129 123 114 101 91 87 83 84 80 75
290 231 193 227 195 167 184 131 154 197 218 224 237 178 141 171 162 155 143 187 152 173 106 145 231 138 115 157 157 153 152 150 145 141 140 132 115 107 101 97 97 95 84 70
198 203 227 183 151 159 218 191 169 205 218 203 183 173 151 170 165 148 143 156 173 200 139 217 186 178 166 161 156 156 152 149 146 143 144 136 127 122 114 108 101 90 82 71
200 223 202 140 170 206 196 198 199 203 203 162 169 159 149 139 144 141 175 145 182 181 151 206 209 143 161 161 158 155 152 144 133 132 131 127 125 124 118 110 101 92 83 72
230 263 187 163 193 206 196 190 179 179 147 165 153 142 146 148 170 114 165 161 151 135 183 215 184 152 159 159 156 152 147 140 133 130 129 129 125 122 118 113 103 97 89 78
249 234 193 216 186 215 209 180 165 142 156 153 154 149 154 127 146 155 152 101 154 202 210 212 160 159 159 157 154 150 145 141 137 135 134 131 128 125 120 114 110 104 95 80
251 242 215 201 216 190 171 152 126 154 152 153 145 126 142 128 131 155 123 170 217 219 213 150 154 156 154 154 152 150 146 144 140 139 137 136 133 130 125 121 116 110 94 80
254 232 255 193 171 160 170 155 145 154 153 150 153 141 161 173 158 172 193 189 221 194 134 143 149 152 153 151 150 149 147 146 144 144 142 140 140 138 133 130 126 113 96 84
252 235 230 207 178 176 180 164 154 155 157 168 148 164 173 129 189 200 183 213 102 118 137 145 151 151 150 149 148 148 147 147 147 145 147 147 147 143 140 137 134 117 105 94
Wind_Speed_850mb
25 22 16 17 11 14 12 9 10 3 20 15 24 16 11 1 8 3 5 8 8 7 2 5 6 5 15 8 8 7 5 9 17 15 17 10 18 13 13 5 5 4 9 6
24 25 19 13 16 16 10 10 12 3 24 11 14 9 12 4 10 3 4 3 6 2 2 6 4 3 7 3 7 16 6 8 14 18 18 15 15 18 10 18 6 7 5 6
25 26 17 15 14 11 8 10 8 12 22 24 15 19 21 16 2 6 2 4 2 5 3 2 3 6 5 4 9 6 8 9 13 15 11 14 8 4 16 23 8 9 4 16
23 26 17 19 11 11 6 12 9 6 11 22 19 15 14 21 13 5 5 5 5 5 3 4 1 3 9 6 3 5 8 4 2 11 6 7 13 2 8 10 14 6 16 16
22 25 18 15 13 14 8 10 9 6 9 12 25 14 16 22 14 5 9 3 3 1 6 7 3 3 6 7 3 9 8 2 5 12 21 25 24 17 18 15 15 23 27 11
21 23 23 15 15 9 5 6 12 10 10 17 18 20 14 15 21 12 8 20 21 23 22 26 24 21 14 10 11 8 3 4 1 7 17 26 17 12 8 14 20 16 15 5
20 23 21 18 14 17 7 8 9 15 9 15 17 12 14 22 10 20 19 18 21 23 34 39 35 33 29 22 16 12 12 7 7 7 8 3 3 0 6 17 18 21 17 14
21 22 23 21 18 19 16 9 5 11 9 20 9 17 25 28 33 28 17 7 29 36 25 17 13 11 14 20 18 12 11 4 5 3 15 12 4 8 3 4 8 19 10 13
22 22 23 21 33 18 20 10 10 8 19 7 15 24 34 25 25 21 39 43 28 9 12 5 4 4 4 6 9 7 6 5 5 3 6 4 10 12 1 9 7 16 12 17
23 22 22 20 26 19 16 11 15 5 15 4 5 14 23 19 24 12 31 21 13 8 9 8 5 7 1 5 5 3 8 6 8 5 7 5 8 7 5 7 8 7 11 14
23 22 22 22 20 20 17 5 17 9 11 4 0 2 15 21 20 18 34 17 10 14 8 5 5 6 6 7 1 6 1 3 3 5 6 4 17 10 2 10 9 7 12 15
25 22 24 22 21 21 19 6 12 14 11 5 4 9 15 15 11 13 46 4 32 12 4 3 5 8 8 15 7 9 6 2 3 5 5 13 14 5 5 8 8 10 12 17
23 23 24 22 24 23 23 15 9 8 10 10 12 12 8 18 24 24 22 7 10 9 2 7 3 6 5 8 7 11 9 9 6 9 14 17 13 10 9 9 11 12 16 17
24 22 25 23 26 26 26 26 6 14 11 7 7 6 4 14 22 24 5 17 17 19 12 4 2 6 7 5 6 6 1 18 11 15 22 19 16 9 6 10 12 13 16 17
24 23 27 25 31 24 26 32 24 21 9 5 18 14 8 13 15 14 11 23 20 20 10 5 5 9 8 8 9 7 17 13 10 8 24 14 17 14 12 17 16 16 17 16
22 25 28 27 37 17 16 5 24 26 14 7 10 8 9 18 22 23 23 21 14 8 6 9 7 8 5 8 6 17 20 17 17 24 19 27 24 19 15 17 18 18 19 20
23 29 27 22 43 23 20 10 20 33 14 7 15 17 15 25 23 19 17 16 10 8 8 3 9 11 9 4 5 35 28 24 20 27 31 25 21 18 14 15 17 18 19 20
24 27 31 36 30 27 44 8 19 40 12 9 6 9 20 25 25 15 13 14 13 5 7 8 12 12 6 2 23 40 33 30 29 26 10 24 21 17 15 14 15 19 23 24
24 26 20 28 19 18 18 18 13 37 10 7 13 15 11 24 21 19 14 10 5 7 7 7 13 6 5 12 48 44 39 30 31 26 26 22 18 17 16 18 20 24 26 26
19 12 11 11 17 26 12 16 18 16 14 13 14 24 11 39 33 15 15 8 8 8 6 15 7 6 7 35 44 44 35 34 32 29 23 21 20 22 23 24 25 26 24 22
11 12 12 9 37 29 9 11 15 17 10 17 16 28 23 38 18 16 4 7 9 7 9 8 9 8 24 48 46 43 34 33 23 13 23 19 27 28 30 31 27 24 22 22
22 16 5 31 17 14 11 10 13 14 13 25 33 41 41 19 17 9 8 5 5 6 19 7 6 10 52 55 52 44 39 29 25 27 33 35 34 34 34 28 24 22 21 20
45 12 14 16 17 15 15 17 15 13 23 33 53 36 27 13 8 9 7 8 5 20 9 7 7 43 60 60 56 47 38 35 37 40 40 40 40 34 30 28 22 22 23 22
11 10 11 12 12 15 15 22 23 27 34 57 57 35 15 13 9 8 9 6 11 9 10 12 16 64 68 63 57 52 47 44 46 46 45 44 39 35 29 25 24 23 23 23
12 14 11 19 31 29 15 36 33 35 59 64 48 20 15 10 7 5 8 11 10 12 9 12 55 74 73 68 62 57 54 53 51 50 46 42 40 33 31 26 24 23 23 23
13 18 14 30 23 15 15 30 44 58 64 60 29 11 12 9 8 11 13 11 11 7 12 49 77 78 73 70 64 60 58 57 55 48 46 43 37 34 32 29 26 23 22 24
15 20 25 18 17 26 30 42 55 76 65 21 11 14 13 15 8 11 11 8 6 27 45 69 79 81 78 72 67 65 64 59 53 51 46 41 38 37 33 29 25 22 23 24
Wind_Direction_850mb
335 325 289 269 268 260 306 270 234 270 175 208 206 223 230 337 161 203 244 287 323 298 23 275 291 311 30 359 313 274 75 293 260 238 72 343 301 263 150 197 190 247 280 133
330 332 295 295 246 261 285 243 251 288 177 220 202 165 183 206 190 183 234 159 341 313 330 278 318 65 35 344 290 355 30 250 272 231 189 196 240 204 234 128 170 212 240 130
325 330 301 305 228 243 261 263 206 181 205 263 278 188 199 164 143 130 90 107 228 208 189 323 142 130 71 20 32 334 296 280 298 313 349 310 220 237 233 213 212 197 188 139
320 326 314 272 247 249 262 230 257 3 191 217 230 201 193 187 172 164 200 149 296 265 189 169 167 98 161 133 111 233 290 332 321 293 319 5 51 357 238 183 246 170 157 115
310 320 324 281 250 242 244 287 300 206 299 246 208 190 208 195 126 296 145 216 142 150 86 333 117 161 339 16 125 2 14 183 122 70 99 101 89 63 99 108 121 125 98 67
304 316 322 283 265 220 223 255 288 281 146 198 207 187 177 165 149 47 133 122 108 92 83 84 81 79 82 78 11 18 28 140 186 136 157 142 78 356 52 83 58 103 93 182
296 311 310 276 270 219 174 304 292 267 218 202 201 157 159 150 156 141 122 128 116 119 113 104 97 92 87 79 64 28 77 103 126 138 224 68 117 33 90 76 57 59 66 32
287 299 311 305 266 244 225 270 304 289 275 200 144 164 122 121 118 111 125 156 136 139 145 134 131 123 119 82 45 57 23 84 63 90 70 121 140 178 55 55 87 80 44 22
278 293 303 304 239 267 238 252 261 276 299 158 158 154 153 138 125 105 101 119 132 156 209 208 176 84 35 90 125 24 101 3 129 339 101 107 145 109 58 303 153 57 3 9
274 290 295 298 257 264 225 202 259 252 270 120 212 171 173 158 163 127 153 152 170 211 204 181 132 111 18 150 126 83 78 101 90 104 90 146 184 127 265 277 70 67 347 340
271 285 288 291 261 242 221 208 248 217 276 124 144 74 149 158 161 162 158 167 200 192 212 182 150 141 119 110 139 142 271 288 121 261 114 170 167 181 330 52 103 356 5 347
267 275 279 284 254 238 202 229 261 217 261 12 176 191 165 161 153 146 170 353 157 167 195 206 129 153 167 156 131 165 185 302 142 354 57 109 132 126 107 46 2 18 3 17
263 268 273 273 251 232 201 210 245 218 240 172 163 145 162 178 166 149 182 171 142 163 66 120 82 122 153 172 143 131 160 158 170 163 138 145 144 132 74 4 351 22 28 22
253 266 272 268 242 228 206 215 244 236 272 216 126 169 176 169 158 170 121 132 130 139 150 128 164 119 273 115 133 130 234 172 166 126 141 128 116 61 24 99 73 48 40 33
253 268 276 268 227 228 211 221 225 208 267 343 130 124 55 145 150 155 137 135 136 152 159 159 90 105 132 125 139 140 180 188 178 130 119 93 99 96 84 76 54 42 38 40
256 272 279 282 210 204 183 270 238 197 221 267 155 110 103 122 129 133 129 131 136 146 119 102 103 133 208 186 153 154 168 132 111 136 119 116 112 110 91 73 60 57 52 43
260 272 278 261 206 198 185 203 164 192 207 231 136 144 142 138 133 134 127 130 124 129 123 96 134 160 205 192 132 157 157 148 134 132 128 128 140 108 88 76 67 64 59 51
267 280 287 205 213 209 206 178 179 185 197 253 170 105 152 174 161 144 163 147 153 72 107 157 161 149 242 192 145 152 149 146 143 143 124 126 117 105 87 78 72 69 67 66
273 287 226 208 204 188 214 209 219 186 243 253 195 171 150 175 159 135 154 181 139 153 164 154 184 143 206 144 154 153 153 152 149 140 129 123 114 101 91 87 83 84 80 75
290 231 193 227 195 167 184 131 154 197 218 224 237 178 141 171 162 155 143 187 152 173 106 145 231 138 115 157 157 153 152 150 145 141 140 132 115 107 101 97 97 95 84 70
198 203 227 183 151 159 218 191 169 205 218 203 183 173 151 170 165 148 143 156 173 200 139 217 186 178 166 161 156 156 152 149 146 143 144 136 127 122 114 108 101 90 82 71
200 223 202 140 170 206 196 198 199 203 203 162 169 159 149 139 144 141 175 145 182 181 151 206 209 143 161 161 158 155 152 144 133 132 131 127 125 124 118 110 101 92 83 72
230 263 187 163 193 206 196 190 179 179 147 165 153 142 146 148 170 114 165 161 151 135 183 215 184 152 159 159 156 152 147 140 133 130 129 129 125 122 118 113 103 97 89 78
249 234 193 216 186 215 209 180 165 142 156 153 154 149 154 127 146 155 152 101 154 202 210 212 160 159 159 157 154 150 145 141 137 135 134 131 128 125 120 114 110 104 95 80
251 242 215 201 216 190 171 152 126 154 152 153 145 126 142 128 131 155 123 170 217 219 213 150 154 156 154 154 152 150 146 144 140 139 137 136 133 130 125 121 116 110 94 80
254 232 255 193 171 160 170 155 145 154 153 150 153 141 161 173 158 172 193 189 221 194 134 143 149 152 153 151 150 149 147 146 144 144 142 140 140 138 133 130 126 113 96 84
252 235 230 207 178 176 180 164 154 155 157 168 148 164 173 129 189 200 183 213 102 118 137 145 151 151 150 149 148 148 147 147 147 145 147 147 147 143 140 137 134 117 105 94